Date String (YYYY-MM-DD hh:mm:ss) UTC,Instrument flags,Ambient pressure (hPa),Sample flow (lpm),Bypass flow (lpm),Sample temperature (°C),Ambient temperature (°C),ASC tube jacket temperature (°C),LED temperature (°C),Box temperature (°C),Sample RH (%),Span deviation,Mass concentration (μg/m³),Mass concentration (μg/m³),Mass concentration (μg/m³)
DateTimeUTC,F1_M11,P_M11,Q1_M11,Q2_M11,T1_M11,T2_M11,T3_M11,T4_M11,T5_M11,U1_M11,ZSPAN_M11,X0_M11,X2_M11,X1_M11
2022-12-30 05:00:00,,0820.2,4.99,0.00,21.9,22.4,00.0,30.6,23.8,07.2,0000.0,0002.68,0000.56,0000.46
2022-12-30 05:01:00,,0820.2,5.02,0.00,22.0,22.5,00.0,30.7,24.0,07.1,0000.0,0002.68,0000.56,0000.45
2022-12-30 05:02:00,,0820.2,5.02,0.00,22.0,21.9,00.0,30.7,23.8,07.1,0000.0,0002.11,0000.55,0000.45
2022-12-30 05:03:00,,0820.2,4.96,0.00,22.0,21.4,00.0,30.7,23.7,07.1,0000.0,0001.07,0000.56,0000.45
2022-12-30 05:04:00,,0820.2,4.97,0.00,22.0,21.0,00.0,30.8,23.6,07.2,0000.0,0001.11,0000.58,0000.45
2022-12-30 05:05:00,,0820.2,5.00,0.00,21.9,20.8,00.0,30.8,23.5,07.2,0000.0,0001.20,0000.60,0000.45
2022-12-30 05:06:00,,0820.2,5.02,0.00,21.8,20.5,00.0,30.8,23.4,07.3,0000.0,0001.03,0000.60,0000.45
2022-12-30 05:07:00,,0820.2,4.99,0.00,21.8,20.4,00.0,30.7,23.3,07.3,0000.0,0001.06,0000.61,0000.45
2022-12-30 05:08:00,,0820.2,4.96,0.00,21.8,20.2,00.0,30.7,23.2,07.4,0000.0,0001.02,0000.60,0000.45
2022-12-30 05:09:00,,0820.2,5.01,0.00,21.7,20.1,00.0,30.7,23.1,07.5,0000.0,0001.07,0000.61,0000.45
2022-12-30 05:10:00,,0820.2,5.02,0.00,21.7,20.5,00.0,30.7,23.2,07.6,0000.0,0001.14,0000.64,0000.45
2022-12-30 05:11:00,,0820.3,5.02,0.00,21.8,21.5,00.0,30.6,23.5,07.5,0000.0,0001.14,0000.64,0000.45
2022-12-30 05:12:00,,0820.3,4.96,0.00,21.9,22.5,00.0,30.6,23.8,07.5,0000.0,0001.13,0000.64,0000.45
2022-12-30 05:13:00,,0820.2,5.00,0.00,22.0,22.4,00.0,30.7,23.9,07.4,0000.0,0001.13,0000.64,0000.45
2022-12-30 05:14:00,,0820.2,5.02,0.00,22.0,21.8,00.0,30.7,23.8,07.4,0000.0,0001.10,0000.62,0000.44
2022-12-30 05:15:00,,0820.2,5.02,0.00,22.0,21.3,00.0,30.8,23.6,07.4,0000.0,0001.91,0000.59,0000.44
2022-12-30 05:16:00,,0820.2,4.98,0.00,21.9,21.0,00.0,30.8,23.4,07.3,0000.0,0002.14,0000.56,0000.44
2022-12-30 05:17:00,,0820.2,4.98,0.00,21.9,20.7,00.0,30.8,23.3,07.2,0000.0,0002.03,0000.54,0000.43
2022-12-30 05:18:00,,0820.2,5.00,0.00,21.8,20.4,00.0,30.7,23.2,07.3,0000.0,0001.96,0000.51,0000.43
2022-12-30 05:19:00,,0820.2,5.01,0.00,21.8,20.3,00.0,30.7,23.2,07.5,0000.0,0001.96,0000.51,0000.42
2022-12-30 05:20:00,,0820.2,5.03,0.00,21.7,20.2,00.0,30.7,23.1,07.5,0000.0,0001.94,0000.50,0000.42
2022-12-30 05:21:00,,0820.2,5.00,0.00,21.7,20.9,00.0,30.6,23.4,07.5,0000.0,0001.87,0000.48,0000.43
2022-12-30 05:22:00,,0820.3,4.99,0.00,21.9,21.9,00.0,30.6,23.7,07.6,0000.0,0001.84,0000.46,0000.42
2022-12-30 05:23:00,,0820.3,4.97,0.00,22.0,22.7,00.0,30.7,23.9,07.5,0000.0,0001.89,0000.45,0000.42
2022-12-30 05:24:00,,0820.2,5.02,0.00,22.0,22.2,00.0,30.7,23.9,07.4,0000.0,0001.92,0000.47,0000.43
2022-12-30 05:25:00,,0820.3,5.01,0.00,22.0,21.6,00.0,30.8,23.7,07.4,0000.0,0001.96,0000.49,0000.44
2022-12-30 05:26:00,,0820.3,4.96,0.00,22.0,21.2,00.0,30.8,23.6,07.5,0000.0,0001.39,0000.52,0000.45
2022-12-30 05:27:00,,0820.2,4.97,0.00,21.9,20.9,00.0,30.8,23.5,07.4,0000.0,0000.84,0000.54,0000.45
2022-12-30 05:28:00,,0820.2,4.99,0.00,21.9,20.7,00.0,30.8,23.4,07.3,0000.0,0000.85,0000.55,0000.46
2022-12-30 05:29:00,,0820.3,5.02,0.00,21.8,20.5,00.0,30.8,23.3,07.4,0000.0,0000.91,0000.57,0000.46
2022-12-30 05:30:00,,0820.3,4.99,0.00,21.8,20.4,00.0,30.8,23.3,07.5,0000.0,0000.93,0000.58,0000.47
2022-12-30 05:31:00,,0820.3,4.99,0.00,21.7,20.3,00.0,30.7,23.2,07.5,0000.0,0000.96,0000.59,0000.48
2022-12-30 05:32:00,,0820.4,4.99,0.00,21.8,20.8,00.0,30.7,23.4,07.5,0000.0,0001.01,0000.61,0000.48
2022-12-30 05:33:00,,0820.4,4.97,0.00,21.9,22.0,00.0,30.6,23.7,07.5,0000.0,0001.09,0000.64,0000.49
2022-12-30 05:34:00,,0820.3,5.03,0.00,22.0,22.7,00.0,30.7,24.0,07.4,0000.0,0001.13,0000.66,0000.49
2022-12-30 05:35:00,,0820.3,5.02,0.00,22.1,22.5,00.0,30.7,24.0,07.4,0000.0,0001.11,0000.66,0000.49
2022-12-30 05:36:00,,0820.2,4.96,0.00,22.1,21.9,00.0,30.8,23.9,07.3,0000.0,0001.09,0000.65,0000.49
2022-12-30 05:37:00,,0820.3,4.98,0.00,22.0,21.4,00.0,30.8,23.7,07.1,0000.0,0001.03,0000.63,0000.49
2022-12-30 05:38:00,,0820.4,5.00,0.00,22.0,21.0,00.0,30.8,23.6,07.2,0000.0,0001.01,0000.62,0000.49
2022-12-30 05:39:00,,0820.5,5.02,0.00,22.0,20.8,00.0,30.8,23.5,07.2,0000.0,0001.01,0000.62,0000.49
2022-12-30 05:40:00,,0820.5,5.00,0.00,21.9,20.7,00.0,30.8,23.5,07.3,0000.0,0001.01,0000.62,0000.49
2022-12-30 05:41:00,,0820.5,4.97,0.00,21.9,20.5,00.0,30.8,23.4,07.3,0000.0,0001.10,0000.66,0000.49
2022-12-30 05:42:00,,0820.4,4.97,0.00,21.9,20.4,00.0,30.8,23.4,07.4,0000.0,0001.14,0000.66,0000.49
2022-12-30 05:43:00,,0820.4,5.02,0.00,21.8,20.4,00.0,30.8,23.3,07.2,0000.0,0001.11,0000.65,0000.49
2022-12-30 05:44:00,,0820.5,5.02,0.00,21.9,21.1,00.0,30.7,23.6,07.2,0000.0,0001.05,0000.64,0000.49
2022-12-30 05:45:00,,0820.5,4.97,0.00,22.0,22.2,00.0,30.7,23.9,07.2,0000.0,0000.92,0000.60,0000.49
2022-12-30 05:46:00,,0820.5,4.99,0.00,22.1,22.8,00.0,30.7,24.1,07.2,0000.0,0000.89,0000.59,0000.49
2022-12-30 05:47:00,,0820.5,5.03,0.00,22.2,22.4,00.0,30.8,24.0,07.1,0000.0,0000.89,0000.59,0000.49
2022-12-30 05:48:00,,0820.5,5.01,0.00,22.1,21.8,00.0,30.8,23.9,07.2,0000.0,0000.88,0000.57,0000.47
2022-12-30 05:49:00,,0820.5,4.98,0.00,22.1,21.4,00.0,30.9,23.8,07.1,0000.0,0000.92,0000.58,0000.47
2022-12-30 05:50:00,,0820.4,4.97,0.00,22.1,21.1,00.0,30.9,23.7,07.2,0000.0,0000.96,0000.60,0000.48
2022-12-30 05:51:00,,0820.4,5.02,0.00,22.0,20.9,00.0,30.9,23.6,07.1,0000.0,0000.93,0000.59,0000.48
2022-12-30 05:52:00,,0820.4,4.99,0.00,22.0,20.8,00.0,30.9,23.5,07.1,0000.0,0000.84,0000.56,0000.48
2022-12-30 05:53:00,,0820.4,5.00,0.00,22.0,20.6,00.0,30.9,23.5,07.2,0000.0,0000.79,0000.54,0000.48
2022-12-30 05:54:00,,0820.4,5.01,0.00,21.9,20.6,00.0,30.8,23.5,07.2,0000.0,0000.81,0000.55,0000.48
2022-12-30 05:55:00,,0820.4,4.98,0.00,21.9,20.5,00.0,30.8,23.4,07.2,0000.0,0000.82,0000.55,0000.48
2022-12-30 05:56:00,,0820.4,4.96,0.00,21.8,20.5,00.0,30.8,23.4,07.2,0000.0,0000.81,0000.55,0000.47
2022-12-30 05:57:00,,0820.4,5.00,0.00,21.9,21.4,00.0,30.7,23.6,07.2,0000.0,0000.80,0000.55,0000.47
2022-12-30 05:58:00,,0820.4,5.03,0.00,22.0,22.4,00.0,30.7,24.0,07.1,0000.0,0000.81,0000.55,0000.47
2022-12-30 05:59:00,,0820.4,4.97,0.00,22.1,22.8,00.0,30.8,24.1,07.0,0000.0,0000.83,0000.55,0000.46
